Helicity
235 267 280 293 302 305 310 306 299 295 295 286 281 282 287 278 281 274 261 252 236 230 204 168 155 128 121 112 109 74 67 62 50 -14 -21 -61 -38 40 90 107 128 141 156
253 276 285 297 311 313 307 302 306 311 348 349 370 332 322 312 285 264 262 241 225 212 184 163 143 131 101 104 93 81 28 -38 -44 -84 -151 -68 -96 38 29 65 111 138 154
267 274 288 297 304 305 313 326 344 359 351 332 306 303 286 263 253 235 233 236 218 203 180 155 123 105 83 74 62 41 19 -29 -96 -112 -151 -134 -50 -9 19 56 101 117 136
308 309 327 347 380 392 380 333 306 305 294 269 278 259 293 304 280 251 229 212 193 174 146 116 88 70 42 39 16 -6 -31 -60 -97 -194 -167 -159 -115 -86 -28 81 80 115 109
265 257 251 262 250 279 281 308 337 356 347 342 327 332 368 324 284 256 222 196 159 135 109 81 49 35 11 2 -10 -28 -47 -84 -122 -165 -192 -186 -172 -157 -113 -51 42 74 73
226 217 231 261 302 335 353 360 368 384 372 370 360 373 363 335 304 267 229 193 136 81 67 49 24 1 -1 -7 -18 -30 -50 -58 -92 -128 -148 -152 -123 -60 -19 -41 -22 7 64
181 203 241 296 374 352 355 361 368 389 398 413 414 394 370 344 328 288 255 201 145 100 78 44 30 18 12 -1 -5 -9 -20 -35 -61 -84 -76 -15 -2 36 42 32 11 -6 20
204 200 204 259 298 307 331 352 368 414 398 386 385 374 358 346 320 283 248 204 159 128 101 75 58 42 38 36 37 33 22 13 -19 -37 15 58 79 97 95 80 75 44 50
167 184 246 245 262 271 308 329 360 370 388 383 357 347 331 317 301 264 226 190 148 130 100 91 82 78 73 76 68 57 41 47 27 48 99 123 146 158 149 144 129 104 28
196 232 241 226 270 294 320 335 339 360 363 344 330 316 305 294 275 237 208 171 137 117 111 98 95 100 106 100 99 83 75 72 118 160 175 184 198 196 189 167 144 135 124
207 248 295 315 286 285 302 325 344 348 337 325 303 284 267 243 222 201 164 135 116 104 98 105 108 101 94 85 79 74 87 104 125 142 150 157 170 189 185 180 166 153 146
219 276 313 343 317 292 282 299 316 304 301 288 275 263 241 216 198 160 124 106 108 111 90 75 63 54 50 74 87 99 112 121 123 124 132 142 144 150 154 157 144 150 138
259 278 289 309 332 326 304 283 275 281 286 278 266 249 224 198 155 118 97 90 83 59 44 26 22 56 89 111 124 128 128 125 120 121 127 124 131 139 138 136 145 153 148
278 307 332 335 332 301 296 290 257 247 245 253 249 227 190 143 106 107 99 77 46 18 23 79 109 117 128 127 123 121 120 120 126 125 123 121 122 120 121 133 137 137 132
295 321 319 320 312 320 290 251 235 233 234 238 212 167 124 85 82 66 56 61 76 105 112 139 148 130 126 129 119 118 128 138 145 142 129 120 92 55 63 114 118 125 137
321 355 349 342 339 316 280 247 219 207 189 171 145 106 91 97 106 113 126 137 142 165 162 142 133 125 139 110 99 108 133 136 149 159 143 131 102 102 70 58 56 71 122
280 293 292 275 223 205 187 168 161 149 153 145 132 127 124 140 160 170 180 180 171 155 146 142 137 138 134 100 90 92 141 150 157 154 150 144 138 106 127 98 73 90 99
245 228 210 193 145 127 114 112 123 139 168 191 192 197 211 210 197 188 172 165 163 160 155 143 133 132 138 84 86 95 142 161 161 158 151 139 127 120 106 106 108 106 103
149 133 113 108 108 120 118 139 158 163 200 231 221 222 205 194 194 198 176 157 158 154 144 121 125 134 132 83 79 102 147 159 158 163 148 145 133 97 69 102 111 103 94
51 57 72 84 99 92 101 135 155 183 198 162 177 191 202 189 180 162 156 153 153 134 128 116 131 113 128 90 74 91 164 181 191 163 140 90 92 64 51 94 105 113 109
54 40 77 113 135 132 146 155 162 177 153 153 163 177 171 163 156 151 156 163 166 147 161 151 152 147 143 136 74 78 147 182 179 175 157 131 62 57 57 55 104 115 98
99 99 105 105 97 77 103 138 145 139 145 157 168 165 160 167 166 152 164 171 179 181 174 171 173 185 162 96 88 69 74 92 162 160 145 117 48 44 38 55 52 22 25
99 96 101 101 97 87 93 116 129 135 154 160 163 165 158 167 165 175 178 191 182 199 196 196 189 184 156 164 81 61 62 70 117 140 98 39 28 19 28 9 11 23 63
101 100 107 109 105 100 102 107 108 107 119 142 147 150 160 163 161 172 178 185 194 196 193 196 194 186 176 175 163 136 146 112 117 86 69 44 30 17 33 29 41 63 65
91 90 91 100 104 99 108 111 114 121 133 141 147 139 138 140 153 160 170 176 169 160 181 182 180 180 178 170 113 133 159 131 96 73 104 111 106 57 86 90 95 111 141
66 85 90 90 94 102 110 114 111 121 140 147 141 133 124 128 128 134 142 89 75 50 44 43 113 191 95 69 57 46 31 20 4 62 87 91 76 79 143 141 155 122 85
Wind_Speed
29 26 26 25 25 25 24 24 24 23 24 25 26 27 29 29 30 32 34 36 38 40 42 44 46 48 50 52 55 57 59 60 65 63 64 57 53 53 59 57 59 61 63
32 30 29 28 29 29 29 29 28 27 28 28 30 29 29 31 31 33 35 37 39 42 43 45 48 50 52 54 57 60 63 61 63 67 67 71 61 56 67 60 62 64 66
38 36 33 31 31 31 30 28 27 28 30 28 28 28 28 29 32 35 37 40 41 44 46 48 50 52 53 56 59 61 63 68 64 64 67 74 74 84 57 68 65 69 71
38 36 34 32 30 29 27 28 28 29 30 29 30 30 35 37 38 38 39 41 43 45 47 49 51 53 55 58 60 61 64 66 70 66 65 65 70 79 84 70 80 71 76
35 35 34 31 29 27 26 26 26 28 28 30 31 33 36 35 37 38 40 42 44 46 48 50 52 54 56 58 60 63 65 66 69 72 73 73 73 76 83 98 87 84 79
31 31 29 27 27 25 26 26 27 28 29 31 33 35 36 37 39 41 42 45 46 47 49 53 54 57 60 63 65 67 68 70 71 73 74 76 80 82 86 95 96 97 89
26 28 29 30 30 28 28 29 29 31 31 31 33 35 36 38 40 42 45 47 49 52 55 58 60 63 65 67 68 71 73 74 76 77 79 78 79 80 85 92 98 100 93
27 28 28 29 30 30 29 30 30 31 32 33 35 36 38 40 42 44 47 50 53 56 59 62 64 67 68 70 72 74 76 77 79 82 82 83 83 82 84 91 98 108 104
28 28 26 29 32 32 33 31 31 32 33 34 36 38 40 42 45 47 50 53 56 59 62 66 70 71 73 75 77 80 82 83 84 86 85 86 85 84 85 85 89 99 116
28 28 29 29 29 29 30 30 32 35 35 36 39 41 43 46 48 52 55 59 62 65 69 71 73 75 77 78 80 82 83 86 87 88 90 89 87 86 85 86 90 92 101
31 29 28 27 27 28 29 31 33 34 36 37 39 44 47 49 52 56 60 64 67 70 74 75 78 80 81 82 85 88 90 92 93 92 92 93 90 90 90 89 90 93 94
30 30 30 30 30 31 32 34 36 38 39 41 45 49 52 55 60 64 67 68 74 73 78 80 82 84 85 85 88 91 90 93 94 92 92 92 90 91 90 90 92 93 93
35 33 33 36 38 37 38 40 43 45 46 47 51 55 59 62 66 69 71 74 77 79 80 82 85 86 88 89 89 90 90 90 90 90 90 89 89 91 89 90 91 91 92
45 42 42 43 42 42 44 47 50 51 52 54 57 61 64 68 70 73 75 77 79 82 84 86 88 89 89 88 87 86 87 87 87 86 86 86 86 87 88 88 88 89 92
50 49 49 48 49 50 51 52 54 55 57 60 63 67 69 70 75 78 80 82 84 86 87 89 88 86 84 82 81 80 82 84 85 84 83 83 82 83 83 84 85 86 90
53 53 52 51 53 54 55 58 62 63 63 68 71 72 75 79 82 84 86 88 89 89 87 86 84 83 80 78 77 78 80 81 83 85 83 82 83 83 85 85 86 85 86
57 57 59 61 61 62 64 69 70 69 71 74 77 79 82 86 88 89 90 91 89 86 85 83 80 79 76 74 74 75 77 78 79 81 82 82 79 80 80 81 84 84 85
63 65 67 70 70 71 73 75 76 77 80 83 86 86 88 90 89 89 88 87 84 83 81 78 75 74 73 73 74 75 77 79 79 79 80 81 81 78 78 80 82 83 82
75 81 81 81 82 81 83 84 86 87 88 90 91 88 86 89 89 88 85 82 79 77 76 74 73 73 74 73 73 73 75 77 78 76 77 77 79 78 79 83 85 85 86
86 89 88 89 90 90 88 93 95 94 94 92 90 86 85 86 86 83 80 73 72 75 73 74 72 73 75 72 71 69 72 78 79 77 79 79 78 80 79 81 82 86 84
95 92 93 95 94 91 89 93 93 92 88 83 82 80 76 77 76 74 72 71 71 73 75 77 76 74 71 71 70 69 73 76 79 78 78 75 74 77 78 79 77 79 80
102 99 100 98 94 88 85 91 91 86 82 79 77 76 73 72 71 72 71 71 73 76 76 77 77 74 73 71 72 72 73 73 76 77 74 73 76 79 80 80 82 83 85
99 96 96 97 92 87 84 90 87 80 79 77 76 75 73 72 71 73 75 74 72 75 77 76 77 75 71 69 69 70 71 72 73 70 71 73 75 75 78 81 83 85 80
101 98 98 97 96 88 86 85 84 80 78 80 80 78 77 77 75 74 74 75 75 75 75 75 75 74 71 69 67 68 67 67 66 66 66 68 70 69 69 71 70 68 70
101 99 99 99 99 94 91 87 85 81 82 81 79 78 77 77 78 75 73 73 71 71 74 73 72 72 72 68 66 64 60 56 55 57 57 58 58 58 60 64 69 63 61
95 95 96 97 97 94 93 89 85 83 84 84 81 78 77 75 74 75 75 73 76 73 72 72 69 66 67 66 65 64 62 62 61 61 61 59 57 55 56 55 58 60 70
Wind_Direction
258 259 260 263 265 267 269 272 276 280 287 290 293 297 301 307 313 317 320 322 325 327 324 324 324 323 324 323 323 321 320 320 321 317 317 315 314 315 316 316 315 314 313
256 256 257 260 262 264 266 269 272 276 284 289 295 297 299 304 308 313 317 320 322 323 324 322 322 322 320 320 320 320 317 317 321 316 312 308 308 311 311 312 312 312 312
255 255 255 257 259 261 264 267 271 276 283 287 291 295 300 302 304 307 311 315 318 320 320 321 320 320 319 318 318 318 317 314 315 318 313 306 302 305 307 308 310 309 310
257 256 257 258 260 262 267 269 272 277 281 282 285 285 290 292 298 303 307 311 315 317 318 318 318 318 317 316 316 316 315 314 312 313 314 311 306 302 299 302 305 307 307
255 255 256 255 257 259 263 268 273 279 282 284 286 288 292 295 299 302 305 309 312 315 316 317 316 316 316 316 315 315 314 313 311 310 310 308 305 301 297 296 297 301 303
259 258 255 253 254 259 263 267 271 277 282 285 287 288 289 292 295 299 301 305 308 310 313 314 314 313 313 312 311 311 310 310 309 308 307 306 303 301 299 296 296 295 298
263 260 256 256 258 258 261 266 269 274 279 283 287 289 291 294 296 298 301 303 305 307 308 310 310 310 310 310 309 309 308 307 306 306 305 304 302 301 299 297 295 294 296
275 268 262 261 262 263 264 267 269 275 279 283 286 289 292 294 296 299 300 302 304 306 308 309 309 309 309 309 308 307 306 305 305 304 303 302 301 300 298 295 295 293 293
280 273 268 269 269 268 270 271 274 278 281 284 287 290 293 294 296 299 301 303 305 306 307 308 307 307 307 307 306 305 304 303 303 302 302 301 300 299 297 296 294 293 290
286 281 277 275 275 274 275 277 279 281 283 286 289 291 293 295 297 298 300 302 304 305 305 306 306 306 306 306 305 304 304 303 302 302 300 299 299 298 297 295 293 292 291
290 287 286 286 283 281 280 281 282 284 286 288 289 291 293 295 297 299 300 302 303 303 303 304 304 304 304 304 303 302 301 300 300 300 299 298 298 296 295 294 293 291 291
297 294 291 288 286 285 284 284 285 286 288 290 291 292 293 295 296 297 299 301 301 303 302 302 302 302 302 302 302 301 301 300 299 299 299 298 298 296 294 293 292 291 291
301 297 292 288 286 286 286 286 286 287 289 290 291 292 293 295 296 297 299 300 300 301 301 301 301 301 301 301 300 300 300 300 299 299 298 298 297 296 295 293 293 292 291
300 298 295 292 290 289 288 288 288 289 290 291 292 293 294 295 296 298 299 299 300 299 300 300 300 300 300 300 300 300 300 299 299 299 299 298 297 296 295 294 293 292 291
301 300 297 295 293 291 290 290 289 290 291 292 292 293 295 295 296 297 298 298 298 299 299 299 300 300 300 300 300 300 300 300 300 300 299 298 297 295 294 293 292 291 290
302 302 301 299 297 296 294 293 292 291 291 291 292 293 294 295 296 296 297 297 297 298 298 298 299 299 300 300 300 300 300 300 300 299 299 299 298 297 295 293 291 289 289
303 302 301 299 299 298 297 294 294 293 291 291 292 293 294 294 295 295 296 296 297 298 297 297 298 298 299 300 300 300 300 300 300 299 299 299 299 298 297 295 293 292 290
303 302 301 300 300 299 297 296 295 293 291 291 291 292 293 293 294 294 295 295 295 296 296 297 297 297 298 299 300 300 300 300 299 299 298 297 297 296 296 295 293 292 291
303 301 300 299 298 297 296 295 294 293 292 290 290 291 292 293 294 293 293 294 294 294 295 295 295 295 297 299 300 301 301 300 300 299 299 298 297 296 295 293 292 292 291
302 301 300 299 297 297 296 294 293 292 291 291 291 291 292 292 292 292 293 293 293 293 294 294 294 295 297 298 299 300 301 300 300 300 299 297 295 293 292 291 290 289 290
302 301 300 298 297 298 297 295 294 292 293 293 293 292 292 292 292 292 292 292 292 292 292 293 294 295 297 299 299 299 299 299 299 299 299 298 296 294 292 291 290 289 291
303 303 301 300 300 299 297 296 294 296 295 294 293 293 292 292 293 292 292 291 291 291 292 293 293 295 296 297 298 297 297 297 297 297 297 296 295 293 292 291 290 289 291
305 304 303 302 301 300 298 295 296 296 296 294 293 293 293 292 292 291 291 291 291 290 291 292 293 295 297 298 298 298 298 297 297 297 296 295 294 292 292 291 290 291 293
304 304 303 301 301 301 299 297 298 297 294 293 293 293 292 292 291 290 290 290 290 290 291 291 292 295 297 298 300 300 302 301 300 299 298 297 295 293 292 293 293 295 295
305 304 302 301 300 300 299 299 298 297 294 293 293 292 292 292 291 290 290 290 289 289 291 291 293 295 296 298 299 299 300 300 300 301 300 298 297 293 296 297 296 296 298
308 307 305 302 300 299 299 298 298 296 294 293 292 292 292 291 291 291 292 291 290 289 289 289 289 291 292 295 297 296 296 296 296 296 296 295 295 294 294 294 298 301 300